Regional Weather Roundup
Issued by NWS Upton, NY

Current Version | Previous Version | Graphics & Text | Print | Product List | Glossary Off
Versions: 1 2 3 4 5 6 7 8 9 10 11 12 13 14 15 16 17 18 19 20 21 22 23 24 25 26 27 28

000
ASUS41 KOKX 242209
RWROKX

REGIONAL WEATHER ROUNDUP
NATIONAL WEATHER SERVICE NEW YORK NY
600 PM EDT MON JUL 24 2017

NOTE: "FAIR" INDICATES FEW OR NO CLOUDS BELOW 12,000 FEET WITH NO
SIGNIFICANT WEATHER AND/OR OBSTRUCTIONS TO VISIBILITY.

NYZ071-072-176-178-NJZ106-104-242300-
NEW YORK CITY METRO AREA

CITY           SKY/WX    TMP DP  RH WIND       PRES   REMARKS
Central Park   CLOUDY    68  61  78 VRB3      29.89R
Bronx Bot Gard   N/A     68  57  68 E9        29.87S
LaGuardia APRT CLOUDY    68  60  75 E9        29.86R
Kennedy INTL   PTSUNNY   69  61  75 NE10      29.87R
Breezy Point     N/A     68 N/A N/A NE9         N/A
Newark/Liberty PTSUNNY   72  60  66 NE8       29.85S
Teterboro      CLOUDY    71  60  68 E3        29.85R
$$

NYZ177-179-078>081-242300-
LONG ISLAND NEW YORK

CITY           SKY/WX    TMP DP  RH WIND       PRES   REMARKS
Jones Beach      N/A     64 N/A N/A NE13        N/A
Matinecock PT    N/A     64 N/A N/A NE12        N/A
Farmingdale    CLOUDY    66  59  78 NE7       29.86R
MacArthur/ISP  CLOUDY    66  60  81 N14       29.85R
Shirley        CLOUDY    65  60  84 N8        29.87R
Mt Sinai Harb    N/A    N/A N/A N/A N14G20      N/A
Westhampton    CLOUDY    64  57  78 N14G20    29.86R
East Hampton   CLOUDY    61  57  87 N12       29.84R
Montauk          N/A     62  58  86 N14G22    29.84S
$$

NYZ052-065-067-242300-
HUDSON VALLEY

CITY           SKY/WX    TMP DP  RH WIND       PRES   REMARKS
White Plains   PTSUNNY   68  58  70 NE6       29.87R
Larchmont Harb   N/A     66 N/A N/A NE10        N/A
Croton O-T Hud   N/A     68 N/A N/A E5          N/A
Newburgh       CLOUDY    68  61  77 NE12      29.89S
Montgomery     CLOUDY    68  60  75 N9        29.87R
Poughkeepsie   CLOUDY    66  57  72 NE7       29.87R
Albany         CLOUDY    65  57  75 CALM      29.89R
$$

NJZ001-105-106-008-010-013-015-019>022-104-242300-
NEW JERSEY

CITY           SKY/WX    TMP DP  RH WIND       PRES   REMARKS
Newark/Liberty PTSUNNY   72  60  66 NE8       29.85S
Teterboro      CLOUDY    71  60  68 E3        29.85R
Caldwell       MOSUNNY   71  62  73 NE5       29.86R
Somerville     PTSUNNY   75  65  70 E6        29.83R
Linden         CLOUDY    72  58  63 E9        29.86R
Perth Amboy      N/A     70 N/A N/A NE8         N/A
Sussex         PTSUNNY   68  61  78 NE6       29.87R
Andover          N/A     69  62  78 VRB3      29.86R
Trenton        SUNNY     77  66  68 E10       29.82R
Millville      SUNNY     86  71  60 W5        29.80S HX  91
Atlantic City  MOSUNNY   77  70  79 SE13      29.83R
Wrightstown    SUNNY     78  67  68 E7        29.80R
Toms River     SUNNY     78  66  66 NE7       29.84R
Belmar         SUNNY     71  62  73 NE8       29.86S
$$

PAZ047>061-062-071-242300-
EASTERN PENNSYLVANIA

CITY           SKY/WX    TMP DP  RH WIND       PRES   REMARKS
Philadelphia   MOSUNNY   88  66  48 SW10      29.80R HX  90
Allentown      PTSUNNY   80  67  64 E10       29.80S
Scranton       CLOUDY    70  66  87 E6        29.85R
$$

CTZ002-004>006-009-010-012-RIZ004-006-007-MAZ004-011-015-242300-
SOUTHERN NEW ENGLAND
 IN CT

CITY           SKY/WX    TMP DP  RH WIND       PRES   REMARKS
Bradley INTL   DRIZZLE   60  57  89 N12       29.90S
Hartford       CLOUDY    62  56  80 N16       29.88S
Danbury        CLOUDY    64  57  78 NE9       29.89R
Wtrbury/Oxford CLOUDY    61  52  72 NE12G20   29.90R
Bridgeport     LGT RAIN  65  56  72 NE13      29.87R
Meriden        CLOUDY    62  56  80 N8        29.88R
New Haven      CLOUDY    65  56  72 N14       29.87R
Chester          N/A     63  55  77 NE10G17   29.87R
Groton         PTSUNNY   63  57  81 N15       29.83S
Wilimantic     CLOUDY    62  56  80 NE17G26   29.88S

 IN RI

CITY           SKY/WX    TMP DP  RH WIND       PRES   REMARKS
Providence     LGT RAIN  59  58  96 N20G26    29.86S FOG
Block Island   CLOUDY    60  57  89 N15G23    29.83R
Westerly       CLOUDY    62  57  83 N15G22    29.84S
 IN MA

CITY           SKY/WX    TMP DP  RH WIND       PRES   REMARKS
Boston         RAIN      59  58  96 NE21G26   29.89S FOG
Worcester      LGT RAIN  55  53  93 NE10G24   29.91R FOG
Westfield      CLOUDY    59  58  96 N10       29.92R
Provincetown   LGT RAIN  63  61  94 NE13      29.82R FOG
Nantucket      CLOUDY    67  67 100 S9        29.74F FOG
$$

ANZ330-335-338-340-345-350-353-355-242300-
COASTAL MARINE OBSERVATIONS


STATION/POSITION TIME  SKY/WX   TEMP    WIND        PRES    VSBY  WAVE
                                AIR SEA DIR/SP/G                  HT/PER
                 (UTC)          (F)     (DEG/KT/KT) (MB)    (MI)  (FT/S)
NY HARB ENTRANCE 2050            66 73   10/ 12/ 14 1010.3          4/ 7
20 S FIRE ISLAND 2150            66 75   10/ 14/ 16 1010.3          5/ 7
GREAT SOUTH BAY  2130            66 79   10/ 10/ 19   N/A
23 SSW MONTAUK P 2050            63 73              1009.0          7/ 6
15 E BARNEGAT LI 2130               75                N/A           5/ 7
HUDSON CANYON    2050            73 78  330/ 16/ 19 1008.8          6/ 7
KINGS POINT      2136            67 72   60/  6/  9 1011.2
EXECUTION ROCKS  2145            69      60/  8/ 12   N/A
CENTRAL LI SOUND NOT AVBL
EASTERN LI SOUND NOT AVBL
ROBBINS REEF     2136                    80/  5/  7 1011.7
$$


>>>>>>>>>>>>>>>>>>>>>>>>>>>> KEY <<<<<<<<<<<<<<<<<<<<<<<<<<<
>                                                          <
>     SKY/WX - Sky Condition/Present Weather               <
>     TMP    - Temperature in Fahrenheit                   <
>     DP     - Dew Point in Fahrenheit                     <
>     RH     - Relative Humidity in Percent                <
>     WIND   - Direction (from) and Speed in MPH           <
>     PRES   - Mean Sea Level Pressure (inches of Hg)      <
>     WCI    - Wind Chill Index                            <
>     VSB    - VISIBILITY IN MILES                         <
>     HX     - HEAT INDEX                                  <
>     TC     - TEMPERATURE IN CELSIUS                      <
>     VRB    - VARIABLE WIND DIRECTION                     <
>                                                          <
>>>>>>>>>>>>>>>>>>>>>>>>>>>> KEY <<<<<<<<<<<<<<<<<<<<<<<<<<<




USA.gov is the U.S. government's official web portal to all federal, state and local government web resources and services.